Location: Cypress Hills Dark-Sky Preserve - CHICO
(49.6176°N, 110.2634°W)
Time: 04:57:59
(UTC-06:00)

Amateur Radio Satellites - All Passes

Search period start: 19 April 2015 04:27
Search period end: 20 April 2015 04:27
Location: Cypress Hills Dark-Sky Preserve - CHICO, 49.6176°N, 110.2634°W

Satellite Date Start Highest point End Downlink Frequencies (MHz)
Time Altitude Azimuth
GONETS M04 19 Apr 04:39:19 04:48:07 63° 74° (ENE) 04:56:54
JAS-2 19 Apr 04:46:26 04:52:40 35° 91° (E) 04:58:17 435.910
Cosmos 2499 19 Apr 04:49:44 04:54:34 17° 47° (NE) 04:59:30 435.465 / 435.565
MOZHAYETS 4 19 Apr 04:54:42 04:59:20 72° 73° (ENE) 05:04:01
STARS 19 Apr 05:01:00 05:03:21 14° 273° (W) 05:05:32 437.465
AUBIESAT-1 19 Apr 05:10:37 05:14:43 30° 58° (ENE) 05:18:55 437.475
BEESAT 2 19 Apr 05:24:38 05:28:25 36° 120° (ESE) 05:32:17 435.950
DANDE 19 Apr 05:29:24 05:35:34 64° 75° (ENE) 05:43:24 436.750
BEESAT 3 19 Apr 05:32:36 05:36:34 50° 123° (ESE) 05:40:36 437.485
CUSAT 1 19 Apr 05:38:28 05:45:00 86° 78° (ENE) 05:53:02 437.405
AIST 2 19 Apr 05:40:23 05:43:31 20° 115° (ESE) 05:46:46 435.215
HORYU 2 19 Apr 05:51:53 05:56:12 45° 292° (WNW) 06:00:30 437.375
Gurwin Techsat 1B 19 Apr 05:52:39 05:56:15 18° 304° (NW) 05:59:43 435.225
M-CUBED/EXP-1 PRIME 19 Apr 05:55:07 05:59:52 74° 67° (ENE) 06:04:45 437.505
ITAMSAT 1 19 Apr 06:07:11 06:09:29 13° 308° (NW) 06:11:35 435.822/435.867
CUBESAT XI-V 19 Apr 06:10:45 06:15:04 39° 68° (ENE) 06:19:23 437.345
AO-7 19 Apr 06:18:13 06:26:33 80° 293° (WNW) 06:34:53 29.400- 29.500
CUTE-I 19 Apr 06:21:58 06:24:33 14° 85° (E) 06:27:22 437.470
Cubesat XI-IV 19 Apr 06:28:53 06:32:03 16° 86° (E) 06:35:25 437.490
JAS-2 19 Apr 06:31:17 06:38:05 52° 294° (WNW) 06:44:03 435.910
STRAND 1 19 Apr 06:34:08 06:38:49 39° 66° (ENE) 06:43:35 437.568
MOZHAYETS 4 19 Apr 06:34:13 06:37:09 16° 273° (W) 06:39:56
GONETS M04 19 Apr 06:36:45 06:44:35 36° 276° (W) 06:52:14
PRISM 19 Apr 06:40:22 06:44:26 51° 71° (ENE) 06:48:31 437.425
Cosmos 2499 19 Apr 06:41:44 06:49:55 64° 74° (ENE) 06:57:26 435.465 / 435.565
AUBIESAT-1 19 Apr 06:44:45 06:49:19 46° 256° (WSW) 06:53:59 437.475
BEESAT 2 19 Apr 07:02:43 07:06:34 36° 320° (NW) 07:10:27 435.950
BEESAT 3 19 Apr 07:11:11 07:14:49 29° 324° (NW) 07:18:27 437.485
DANDE 19 Apr 07:13:08 07:18:43 31° 269° (W) 07:25:14 436.750
AIST 2 19 Apr 07:17:30 07:21:46 62° 313° (NW) 07:26:03 435.215
CUSAT 1 19 Apr 07:22:13 07:27:24 23° 273° (W) 07:33:03 437.405
M-CUBED/EXP-1 PRIME 19 Apr 07:32:00 07:35:17 18° 267° (W) 07:38:26 437.505
CUBESAT XI-V 19 Apr 07:48:34 07:52:37 28° 267° (W) 07:56:37 437.345
CUTE-I 19 Apr 08:00:11 08:05:32 86° 103° (ESE) 08:10:53 437.470
Cubesat XI-IV 19 Apr 08:07:35 08:12:56 83° 288° (WNW) 08:18:16 437.490
AO-7 19 Apr 08:11:53 08:18:20 25° 314° (NW) 08:24:35 29.400- 29.500
STRAND 1 19 Apr 08:13:27 08:18:07 34° 265° (W) 08:22:44 437.568
HO-68 19 Apr 08:15:42 08:15:52 10° 77° (ENE) 08:16:37 435.675
PRISM 19 Apr 08:17:14 08:20:14 18° 269° (W) 08:23:09 437.425
JAS-2 19 Apr 08:18:07 08:21:33 14° 317° (NW) 08:24:34 435.910
Cosmos 2491 19 Apr 08:19:40 08:22:18 12° 38° (NE) 08:25:24 435.465 / 435.565
Cosmos 2499 19 Apr 08:35:35 08:42:33 32° 277° (W) 08:48:56 435.465 / 435.565
BEESAT 2 19 Apr 08:43:53 08:45:51 13° 343° (NNW) 08:47:47 435.950
BEESAT 3 19 Apr 08:52:40 08:54:09 11° 347° (NNW) 08:55:34 437.485
AIST 2 19 Apr 08:58:16 09:01:11 17° 335° (NNW) 09:04:04 435.215
DOVE 4 19 Apr 09:00:07 09:02:57 16° 87° (E) 09:06:03 437.250
BRITE-PL 19 Apr 09:00:40 09:04:52 30° 94° (E) 09:09:24 437.365/2234.400
O/OREOS (USA 219) 19 Apr 09:05:47 09:09:57 35° 53° (NE) 09:14:05 437.305
CANX-2 19 Apr 09:11:02 09:14:06 19° 90° (E) 09:17:15 2200.000
SEEDS 19 Apr 09:15:13 09:17:52 16° 88° (E) 09:20:39 437.485
CUTE 1.7 + AOD 2 19 Apr 09:21:07 09:24:27 22° 91° (E) 09:27:50 437.475
GOMX 1 19 Apr 09:25:14 09:29:39 35° 95° (E) 09:34:23 467.674
CUTE-I 19 Apr 09:41:24 09:45:02 19° 304° (NW) 09:48:31 437.470
TIGRISAT 19 Apr 09:42:22 09:45:24 19° 60° (ENE) 09:48:36 435.000
UNISAT 6 19 Apr 09:43:11 09:46:19 19° 60° (ENE) 09:49:38 437.425
Cubesat XI-IV 19 Apr 09:49:03 09:52:21 16° 306° (NW) 09:55:29 437.490
AAUSAT CUBESAT 2 19 Apr 09:49:20 09:52:49 25° 93° (E) 09:56:19 437.432
CUBEBUG 2 19 Apr 09:49:22 09:51:27 13° 85° (E) 09:53:45 437.445
HO-68 19 Apr 09:58:31 10:05:34 54° 100° (E) 10:12:35 435.675
POLYITAN 1 19 Apr 10:01:56 10:04:13 15° 59° (ENE) 10:06:39 437.675
Oscar 11 19 Apr 10:01:56 10:04:49 18° 89° (E) 10:07:50 145.826/435.025
DUCHIFAT 1 19 Apr 10:11:32 10:14:12 17° 61° (ENE) 10:17:00 145.980
DELFI C3 19 Apr 10:12:01 10:14:30 16° 89° (E) 10:17:08 145.870
Cosmos 2491 19 Apr 10:14:11 10:22:26 43° 66° (ENE) 10:30:46 435.465 / 435.565
ANTELSAT 19 Apr 10:23:35 10:27:47 41° 68° (ENE) 10:32:10 437.575/2403.000
QB50P1 19 Apr 10:23:38 10:26:52 22° 63° (ENE) 10:30:10 145.935-145.965
DX 1 19 Apr 10:24:59 10:25:41 10° 85° (E) 10:26:38 434.975-435.025
BEESAT 2 19 Apr 10:25:05 10:25:44 10° 7° (N) 10:26:25 435.950
UWE-3 19 Apr 10:29:36 10:33:25 25° 92° (E) 10:37:19 435.000/436.395/437.385
BEESAT 3 19 Apr 10:32:54 10:33:57 11° 10° (N) 10:35:02 437.485
COMPASS 1 19 Apr 10:35:39 10:39:56 83° 104° (ESE) 10:44:09 437.405
DOVE 4 19 Apr 10:36:26 10:41:19 82° 285° (WNW) 10:46:28 437.250
CINEMA 3 19 Apr 10:36:37 10:41:25 59° 100° (E) 10:46:21 145.822/145.860
BUGSAT 1 19 Apr 10:38:14 10:41:16 21° 63° (ENE) 10:44:22 437.445
BRITE-PL 19 Apr 10:39:06 10:43:30 40° 291° (WNW) 10:48:13 437.365/2234.400
HUMSAT D 19 Apr 10:39:46 10:41:35 13° 85° (E) 10:43:35 437.325/437.525
AIST 2 19 Apr 10:40:34 10:41:27 11° 359° (N) 10:42:21 435.215
O/OREOS (USA 219) 19 Apr 10:45:17 10:49:22 33° 253° (WSW) 10:53:21 437.305
CANX-2 19 Apr 10:46:10 10:50:22 51° 289° (WNW) 10:54:32 2200.000
QB50P2 19 Apr 10:46:19 10:50:10 35° 68° (ENE) 10:54:04 145.880/145.840
PCSat 19 Apr 10:48:10 10:53:28 59° 120° (ESE) 10:58:50 145.827
SEEDS 19 Apr 10:49:53 10:54:08 60° 288° (WNW) 10:58:19 437.485
CUTE 1.7 + AOD 2 19 Apr 10:56:29 11:00:37 45° 290° (WNW) 11:04:42 437.475
FUNcube-1 19 Apr 10:58:17 11:02:30 36° 96° (E) 11:06:46 145.935
VELOX 1 19 Apr 11:02:34 11:04:26 13° 86° (E) 11:06:30 145.980
GOMX 1 19 Apr 11:03:24 11:07:49 36° 292° (WNW) 11:12:27 467.674
POPSAT HIP 1 19 Apr 11:09:07 11:13:14 57° 72° (ENE) 11:17:25 437.405
NANOSAT C BR1 19 Apr 11:09:15 11:13:22 57° 72° (ENE) 11:17:32 145.865
UKube-1 19 Apr 11:15:51 11:19:42 31° 95° (E) 11:23:35 .
AISAT 19 Apr 11:16:38 11:19:38 18° 90° (E) 11:22:46 437.250
TIGRISAT 19 Apr 11:17:15 11:21:42 66° 259° (WSW) 11:26:17 435.000
UNISAT 6 19 Apr 11:18:14 11:22:41 63° 259° (W) 11:27:17 437.425
ZACube-1 19 Apr 11:20:31 11:25:05 59° 101° (E) 11:29:39 437.345
CUBEBUG 2 19 Apr 11:24:08 11:28:52 90° 278° (W) 11:33:39 437.445
AAUSAT CUBESAT 2 19 Apr 11:24:39 11:28:34 37° 291° (WNW) 11:32:26 437.432
50 SAT 19 Apr 11:28:10 11:31:26 23° 92° (E) 11:34:43 437.505
YUBILEINY 19 Apr 11:28:30 11:36:24 40° 86° (E) 11:44:27 435.215
CUBEBUG 1 19 Apr 11:29:21 11:30:47 12° 85° (E) 11:32:26 437.445
ESTCUBE 1 19 Apr 11:31:05 11:33:25 14° 87° (E) 11:35:57 437.505/2401.250
POLYITAN 1 19 Apr 11:35:24 11:39:37 77° 256° (WSW) 11:43:53 437.675
Oscar 11 19 Apr 11:37:07 11:41:26 58° 288° (WNW) 11:45:41 145.826/435.025
DUCHIFAT 1 19 Apr 11:45:28 11:49:37 63° 258° (WSW) 11:53:50 145.980
DELFI C3 19 Apr 11:46:03 11:50:04 56° 288° (WNW) 11:54:01 145.870
HO-68 19 Apr 11:46:34 11:53:10 40° 301° (WNW) 11:59:40 435.675
DX 1 19 Apr 11:58:21 12:02:44 85° 104° (ESE) 12:07:06 434.975-435.025
QB50P1 19 Apr 11:58:27 12:02:30 45° 261° (W) 12:06:35 145.935-145.965
ANTELSAT 19 Apr 12:00:57 12:04:46 26° 268° (W) 12:08:36 437.575/2403.000
BEESAT 2 19 Apr 12:02:12 12:05:22 21° 30° (NNE) 12:08:34 435.950
UWE-3 19 Apr 12:05:42 12:10:10 46° 290° (WNW) 12:14:38 435.000/436.395/437.385
BEESAT 3 19 Apr 12:09:56 12:13:22 25° 34° (NNE) 12:16:48 437.485
Cosmos 2491 19 Apr 12:11:08 12:19:39 54° 270° (W) 12:28:06 435.465 / 435.565
BUGSAT 1 19 Apr 12:12:39 12:16:31 43° 261° (W) 12:20:24 437.445
COMPASS 1 19 Apr 12:12:50 12:15:05 14° 301° (WNW) 12:17:10 437.405
Oscar 19 19 Apr 12:13:04 12:16:08 17° 55° (NE) 12:19:22 437.125/150
HUMSAT D 19 Apr 12:13:37 12:18:00 82° 285° (WNW) 12:22:21 437.325/437.525
CINEMA 3 19 Apr 12:14:31 12:18:18 23° 298° (WNW) 12:22:04 145.822/145.860
DOVE 4 19 Apr 12:15:48 12:18:29 15° 302° (WNW) 12:21:03 437.250
AIST 2 19 Apr 12:19:03 12:21:45 16° 23° (NNE) 12:24:29 435.215
QB50P2 19 Apr 12:22:32 12:26:09 27° 266° (W) 12:29:46 145.880/145.840
PCSat 19 Apr 12:32:20 12:37:14 33° 321° (NW) 12:42:08 145.827
FUNcube-1 19 Apr 12:34:44 12:38:47 31° 294° (WNW) 12:42:48 145.935
VELOX 1 19 Apr 12:37:14 12:41:41 83° 286° (WNW) 12:46:08 145.980
POPSAT HIP 1 19 Apr 12:46:44 12:49:33 17° 271° (W) 12:52:14 437.405
NANOSAT C BR1 19 Apr 12:46:51 12:49:38 17° 271° (W) 12:52:19 145.865
AIST 1 19 Apr 12:51:46 12:55:56 51° 75° (ENE) 13:00:07
UKube-1 19 Apr 12:51:58 12:55:52 32° 294° (WNW) 12:59:42 .
AISAT 19 Apr 12:52:17 12:56:40 58° 289° (WNW) 13:01:01 437.250
Cosmos 2504 19 Apr 12:52:48 12:56:45 14° 71° (ENE) 13:01:13 435.465 / 435.565
ZACube-1 19 Apr 12:57:39 13:01:05 21° 298° (WNW) 13:04:26 437.345
SO-50 19 Apr 13:01:26 13:03:21 13° 109° (ESE) 13:05:30 436.795
CUBEBUG 2 19 Apr 13:02:14 13:04:58 15° 302° (WNW) 13:07:34 437.445
50 SAT 19 Apr 13:02:36 13:06:25 38° 291° (WNW) 13:10:11 437.505
CUBEBUG 1 19 Apr 13:03:30 13:07:52 87° 286° (WNW) 13:12:14 437.445
ESTCUBE 1 19 Apr 13:06:25 13:10:55 75° 287° (WNW) 13:15:24 437.505/2401.250
TISAT 1 19 Apr 13:12:30 13:16:11 29° 94° (E) 13:19:55 437.305
SPROUT 19 Apr 13:15:48 13:19:51 38° 97° (E) 13:23:55 437.525
YUBILEINY 19 Apr 13:24:22 13:33:02 57° 288° (WNW) 13:41:42 435.215
DX 1 19 Apr 13:36:03 13:38:25 14° 303° (WNW) 13:40:40 434.975-435.025
HO-68 19 Apr 13:36:44 13:39:05 12° 323° (NW) 13:41:10 435.675
BEESAT 2 19 Apr 13:39:52 13:44:03 87° 232° (SW) 13:48:09 435.950
AO-7 19 Apr 13:41:14 13:46:16 18° 38° (NE) 13:51:33 29.400- 29.500
BEESAT 19 Apr 13:45:36 13:47:34 13° 85° (E) 13:49:45 436.000
SWISSCUBE 19 Apr 13:46:34 13:48:57 14° 86° (E) 13:51:32 437.505
BEESAT 3 19 Apr 13:47:39 13:51:46 64° 235° (SW) 13:55:47 437.485
Oscar 19 19 Apr 13:49:40 13:54:50 87° 69° (ENE) 14:00:03 437.125/150
HUMSAT D 19 Apr 13:51:16 13:53:06 12° 303° (WNW) 13:54:47 437.325/437.525
AIST 2 19 Apr 13:57:02 14:01:16 55° 45° (NE) 14:05:24 435.215
Gurwin Techsat 1B 19 Apr 13:57:58 14:02:42 34° 64° (ENE) 14:07:30 435.225
RS-15 19 Apr 14:03:49 14:06:22 11° 94° (E) 14:09:53 29.354- 29.394
ITAMSAT 1 19 Apr 14:08:58 14:13:54 47° 68° (ENE) 14:18:54 435.822/435.867
Cosmos 2491 19 Apr 14:11:32 14:14:36 12° 291° (WNW) 14:17:04 435.465 / 435.565
VELOX 1 19 Apr 14:15:35 14:17:37 13° 304° (NW) 14:19:29 145.980
PCSat 19 Apr 14:19:29 14:22:23 14° 346° (NNW) 14:25:14 145.827
AIST 1 19 Apr 14:30:21 14:33:16 18° 274° (W) 14:36:02
SO-50 19 Apr 14:38:27 14:43:08 77° 127° (SE) 14:48:00 436.795
Cosmos 2504 19 Apr 14:39:54 14:48:31 60° 92° (E) 14:57:09 435.465 / 435.565
CUBEBUG 1 19 Apr 14:41:35 14:43:38 13° 303° (WNW) 14:45:31 437.445
ESTCUBE 1 19 Apr 14:45:20 14:47:05 12° 305° (NW) 14:48:39 437.505/2401.250
ITUPSAT 1 19 Apr 14:46:07 14:50:41 43° 98° (E) 14:55:13 437.325
TISAT 1 19 Apr 14:48:11 14:52:01 33° 293° (WNW) 14:55:49 437.305
SPROUT 19 Apr 14:52:10 14:55:49 26° 295° (WNW) 14:59:24 437.525
JAS-2 19 Apr 15:01:48 15:08:27 32° 58° (ENE) 15:15:05 435.910
ISS 19 Apr 15:09:12 15:11:35 19° 141° (SE) 15:14:00 145.825
STARS 19 Apr 15:10:10 15:10:47 10° 84° (E) 15:11:40 437.465
HORYU 2 19 Apr 15:18:00 15:22:07 37° 67° (ENE) 15:26:18 437.375
BEESAT 2 19 Apr 15:19:52 15:21:34 12° 249° (WSW) 15:23:06 435.950
BEESAT 19 Apr 15:21:24 15:26:13 89° 90° (E) 15:31:00 436.000
SWISSCUBE 19 Apr 15:22:44 15:27:32 83° 288° (WNW) 15:32:18 437.505
YUBILEINY 19 Apr 15:27:17 15:32:27 16° 315° (NW) 15:37:13 435.215
AO-7 19 Apr 15:29:29 15:37:28 56° 61° (ENE) 15:45:31 29.400- 29.500
Oscar 19 19 Apr 15:32:00 15:35:00 15° 275° (W) 15:37:47 437.125/150
KKS-1 19 Apr 15:32:36 15:36:21 26° 93° (E) 15:40:11 437.445
AIST 2 19 Apr 15:36:11 15:39:34 23° 244° (WSW) 15:42:49 435.215
Gurwin Techsat 1B 19 Apr 15:37:36 15:42:38 41° 263° (W) 15:47:39 435.225
ITAMSAT 1 19 Apr 15:49:11 15:53:39 28° 267° (W) 15:58:04 435.822/435.867
GONETS M04 19 Apr 15:55:13 15:58:52 14° 71° (ENE) 16:03:06
PCSat 19 Apr 16:05:29 16:08:09 14° 12° (NNE) 16:10:52 145.827
RS-15 19 Apr 16:05:50 16:16:09 53° 116° (ESE) 16:26:48 29.354- 29.394
SO-50 19 Apr 16:20:07 16:24:13 27° 330° (NNW) 16:28:23 436.795
ITUPSAT 1 19 Apr 16:24:20 16:28:26 28° 297° (WNW) 16:32:28 437.325
Cosmos 2504 19 Apr 16:34:08 16:42:25 40° 295° (WNW) 16:50:32 435.465 / 435.565
STARS 19 Apr 16:43:36 16:48:05 82° 104° (ESE) 16:52:32 437.465
ISS 19 Apr 16:44:20 16:47:35 79° 162° (SSE) 16:50:53 145.825
JAS-2 19 Apr 16:45:06 16:52:58 75° 258° (WSW) 17:00:44 435.910
MOZHAYETS 4 19 Apr 16:47:20 16:49:17 13° 85° (E) 16:51:27
HORYU 2 19 Apr 16:54:57 16:58:52 28° 266° (W) 17:02:46 437.375
BEESAT 19 Apr 17:00:37 17:03:28 16° 304° (WNW) 17:06:09 436.000
SWISSCUBE 19 Apr 17:02:10 17:04:44 14° 305° (NW) 17:07:08 437.505
KKS-1 19 Apr 17:08:57 17:13:09 40° 292° (WNW) 17:17:20 437.445
AO-7 19 Apr 17:22:48 17:30:35 42° 263° (W) 17:38:20 29.400- 29.500
Cosmos 2499 19 Apr 17:38:35 17:39:09 10° 68° (ENE) 17:40:24 435.465 / 435.565
GONETS M04 19 Apr 17:45:28 17:53:59 61° 92° (E) 18:02:39
CUTE-I 19 Apr 17:47:19 17:52:06 36° 64° (ENE) 17:56:57 437.470
PCSat 19 Apr 17:48:40 17:53:24 30° 37° (NE) 17:58:10 145.827
Cubesat XI-IV 19 Apr 17:54:39 17:59:35 41° 66° (ENE) 18:04:35 437.490
SO-50 19 Apr 18:03:38 18:06:21 15° 353° (N) 18:09:04 436.795
RS-15 19 Apr 18:17:40 18:28:30 62° 322° (NW) 18:39:42 29.354- 29.394
ISS 19 Apr 18:20:51 18:24:05 57° 359° (N) 18:27:19 145.825
STARS 19 Apr 18:21:23 18:24:00 15° 302° (WNW) 18:26:29 437.465
MOZHAYETS 4 19 Apr 18:22:36 18:27:16 86° 285° (WNW) 18:31:52
JAS-2 19 Apr 18:34:02 18:39:20 18° 279° (W) 18:44:15 435.910
Cosmos 2504 19 Apr 18:36:20 18:39:03 11° 322° (NW) 18:41:18 435.465 / 435.565
HO-68 19 Apr 18:47:31 18:51:50 18° 45° (NE) 18:56:22 435.675
DANDE 19 Apr 18:49:04 18:51:55 36° 93° (E) 18:55:34 436.750
CUSAT 1 19 Apr 18:53:27 18:56:41 63° 98° (E) 19:00:58 437.405
M-CUBED/EXP-1 PRIME 19 Apr 19:08:18 19:12:17 30° 99° (E) 19:16:01 437.505
Cosmos 2499 19 Apr 19:22:04 19:30:22 48° 89° (E) 19:38:36 435.465 / 435.565
CUTE-I 19 Apr 19:27:11 19:32:10 40° 263° (W) 19:37:10 437.470
PCSat 19 Apr 19:31:53 19:37:18 69° 239° (WSW) 19:42:41 145.827
Cubesat XI-IV 19 Apr 19:34:56 19:39:48 34° 265° (W) 19:44:38 437.490
CUBESAT XI-V 19 Apr 19:40:00 19:44:32 53° 99° (E) 19:49:02 437.345
GONETS M04 19 Apr 19:43:20 19:51:24 38° 296° (WNW) 19:59:27
SO-50 19 Apr 19:45:25 19:48:44 18° 18° (NNE) 19:52:07 436.795
PRISM 19 Apr 19:53:54 19:57:52 44° 99° (E) 20:01:49 437.425
AUBIESAT-1 19 Apr 19:56:46 20:01:18 77° 110° (ESE) 20:05:27 437.475
ISS 19 Apr 19:57:19 20:00:36 86° 198° (SSW) 20:03:52 145.825
COMPASS 1 19 Apr 19:57:56 20:00:02 14° 59° (ENE) 20:02:17 437.405
MOZHAYETS 4 19 Apr 20:01:25 20:03:51 14° 303° (WNW) 20:06:06
CANX-2 19 Apr 20:08:11 20:11:39 25° 64° (ENE) 20:15:13 2200.000
CINEMA 3 19 Apr 20:08:53 20:10:42 13° 56° (NE) 20:12:43 145.822/145.860
DOVE 4 19 Apr 20:10:32 20:13:43 21° 62° (ENE) 20:17:05 437.250
SEEDS 19 Apr 20:11:31 20:14:42 21° 63° (ENE) 20:18:00 437.485
BRITE-PL 19 Apr 20:16:34 20:20:33 48° 71° (ENE) 20:24:39 437.365/2234.400
CUTE 1.7 + AOD 2 19 Apr 20:18:10 20:21:49 28° 66° (ENE) 20:25:32 437.475
STRAND 1 19 Apr 20:18:48 20:23:52 59° 101° (ESE) 20:28:53 437.568
HO-68 19 Apr 20:31:17 20:38:20 62° 66° (ENE) 20:45:27 435.675
RS-15 19 Apr 20:33:23 20:43:30 38° 354° (N) 20:54:01 29.354- 29.394
DANDE 19 Apr 20:33:29 20:35:41 16° 304° (WNW) 20:38:07 436.750
GOMX 1 19 Apr 20:38:20 20:42:22 53° 71° (ENE) 20:46:35 467.674
CUSAT 1 19 Apr 20:38:34 20:40:26 13° 309° (NW) 20:42:20 437.405
M-CUBED/EXP-1 PRIME 19 Apr 20:42:58 20:47:14 37° 300° (WNW) 20:51:09 437.505
AAUSAT CUBESAT 2 19 Apr 20:44:20 20:48:02 30° 67° (ENE) 20:51:47 437.432
ZACube-1 19 Apr 20:47:52 20:49:22 12° 56° (NE) 20:51:03 437.345
CUBEBUG 2 19 Apr 20:51:56 20:54:49 18° 60° (ENE) 20:57:52 437.445
VERMONT LUNAR 19 Apr 20:53:37 20:55:08 13° 164° (SSE) 20:56:42 437.305
Oscar 11 19 Apr 21:00:49 21:04:18 24° 64° (ENE) 21:07:54 145.826/435.025
DELFI C3 19 Apr 21:03:54 21:06:49 19° 63° (ENE) 21:09:49 145.870
Cosmos 2499 19 Apr 21:15:00 21:23:36 50° 290° (WNW) 21:31:59 435.465 / 435.565
PCSat 19 Apr 21:17:46 21:19:51 12° 256° (WSW) 21:21:39 145.827
CUBESAT XI-V 19 Apr 21:18:05 21:21:42 22° 298° (WNW) 21:25:12 437.345
DX 1 19 Apr 21:23:43 21:26:35 18° 60° (ENE) 21:29:34 434.975-435.025
SO-50 19 Apr 21:25:42 21:30:29 46° 41° (NE) 21:35:15 436.795
PRISM 19 Apr 21:29:55 21:33:07 22° 297° (WNW) 21:36:13 437.425
COMPASS 1 19 Apr 21:30:55 21:35:10 84° 256° (WSW) 21:39:28 437.405
UWE-3 19 Apr 21:31:07 21:34:57 32° 66° (ENE) 21:38:57 435.000/436.395/437.385
AUBIESAT-1 19 Apr 21:32:30 21:35:32 18° 308° (NW) 21:38:19 437.475
YUBILEINY 19 Apr 21:32:31 21:39:32 26° 56° (ENE) 21:46:41 435.215
ISS 19 Apr 21:34:04 21:36:40 22° 217° (SW) 21:39:13 145.825
HUMSAT D 19 Apr 21:35:49 21:38:27 17° 60° (ENE) 21:41:13 437.325/437.525
CINEMA 3 19 Apr 21:42:56 21:47:12 85° 76° (ENE) 21:51:42 145.822/145.860
CANX-2 19 Apr 21:43:20 21:47:25 41° 263° (W) 21:51:32 2200.000
SEEDS 19 Apr 21:46:05 21:50:14 49° 261° (W) 21:54:26 437.485
DOVE 4 19 Apr 21:47:10 21:51:14 47° 262° (W) 21:55:28 437.250
GONETS M04 19 Apr 21:50:19 21:51:50 10° 325° (NW) 21:52:52
PHONESAT 2.4 19 Apr 21:53:28 21:55:21 14° 164° (SSE) 21:57:18 2401.200-2431.200
CUTE 1.7 + AOD 2 19 Apr 21:53:40 21:57:39 36° 264° (W) 22:01:38 437.475
BRITE-PL 19 Apr 21:56:32 21:59:30 18° 271° (W) 22:02:23 437.365/2234.400
FUNcube-1 19 Apr 21:58:17 22:02:23 46° 70° (ENE) 22:06:39 145.935
STRAND 1 19 Apr 21:58:39 22:02:44 24° 300° (WNW) 22:06:43 437.568
VELOX 1 19 Apr 22:04:00 22:07:15 21° 62° (ENE) 22:10:35 145.980
UKube-1 19 Apr 22:14:45 22:18:53 47° 69° (ENE) 22:23:04 .
50 SAT 19 Apr 22:18:01 22:21:18 25° 65° (ENE) 22:24:40 437.505
GOMX 1 19 Apr 22:18:07 22:20:59 17° 272° (W) 22:23:47 467.674
AISAT 19 Apr 22:18:34 22:22:18 28° 65° (ENE) 22:26:06 437.250
AAUSAT CUBESAT 2 19 Apr 22:19:51 22:23:39 31° 265° (W) 22:27:26 437.432
HO-68 19 Apr 22:20:12 22:26:33 32° 267° (W) 22:32:51 435.675
ZACube-1 19 Apr 22:20:42 22:25:00 78° 74° (ENE) 22:29:26 437.345
CUBEBUG 2 19 Apr 22:26:47 22:31:03 64° 258° (WSW) 22:35:31 437.445
CUBEBUG 1 19 Apr 22:29:15 22:32:10 18° 61° (ENE) 22:35:13 437.445
VERMONT LUNAR 19 Apr 22:29:34 22:31:56 18° 180° (S) 22:34:18 437.305
ESTCUBE 1 19 Apr 22:34:36 22:38:09 24° 63° (ENE) 22:41:47 437.505/2401.250
Oscar 11 19 Apr 22:36:08 22:40:18 43° 262° (W) 22:44:29 145.826/435.025
DELFI C3 19 Apr 22:37:40 22:41:40 50° 261° (W) 22:45:42 145.870
RS-15 19 Apr 22:48:19 22:59:07 48° 27° (NNE) 23:10:28 29.354- 29.394
DX 1 19 Apr 22:58:08 23:02:26 64° 258° (WSW) 23:06:46 434.975-435.025
TIGRISAT 19 Apr 23:05:12 23:08:43 21° 90° (E) 23:12:19 435.000
UNISAT 6 19 Apr 23:06:22 23:09:59 22° 90° (E) 23:13:41 437.425
SO-50 19 Apr 23:06:25 23:11:00 37° 241° (WSW) 23:15:30 436.795
UWE-3 19 Apr 23:07:38 23:11:31 31° 266° (W) 23:15:28 435.000/436.395/437.385
HUMSAT D 19 Apr 23:09:35 23:13:46 66° 259° (WSW) 23:18:02 437.325/437.525
Cosmos 2499 19 Apr 23:14:53 23:19:25 14° 317° (NW) 23:23:28 435.465 / 435.565
POLYITAN 1 19 Apr 23:18:03 23:20:09 14° 87° (E) 23:22:25 437.675
Cosmos 2491 19 Apr 23:21:22 23:29:11 40° 86° (E) 23:37:11 435.465 / 435.565
CINEMA 3 19 Apr 23:23:32 23:25:14 12° 277° (W) 23:26:43 145.822/145.860
O/OREOS (USA 219) 19 Apr 23:23:58 23:26:45 17° 101° (E) 23:29:41 437.305
DUCHIFAT 1 19 Apr 23:26:58 23:29:32 16° 88° (E) 23:32:15 145.980
YUBILEINY 19 Apr 23:28:53 23:37:44 88° 261° (W) 23:46:28 435.215
PHONESAT 2.4 19 Apr 23:30:16 23:32:53 19° 181° (S) 23:35:30 2401.200-2431.200
FUNcube-1 19 Apr 23:35:39 23:39:01 22° 270° (W) 23:42:23 145.935
VELOX 1 19 Apr 23:39:12 23:43:31 53° 260° (W) 23:47:51 145.980
QB50P1 19 Apr 23:39:37 23:42:53 21° 91° (E) 23:46:15 145.935-145.965
ANTELSAT 19 Apr 23:47:33 23:52:10 50° 99° (E) 23:56:46 437.575/2403.000
BUGSAT 1 19 Apr 23:50:59 23:53:54 19° 91° (E) 23:56:57 437.445
UKube-1 19 Apr 23:51:56 23:55:18 21° 268° (W) 23:58:36 .
50 SAT 19 Apr 23:52:20 23:56:01 35° 264° (W) 23:59:44 437.505
AISAT 19 Apr 23:54:42 23:58:48 37° 263° (W) 00:02:55 437.250
ZACube-1 19 Apr 23:59:53 00:02:03 13° 275° (W) 00:04:03 437.345
QB50P2 20 Apr 00:02:50 00:06:48 36° 97° (E) 00:10:48 145.880/145.840
CUBEBUG 1 20 Apr 00:03:53 00:08:10 61° 259° (W) 00:12:29 437.445
VERMONT LUNAR 20 Apr 00:07:14 00:08:45 12° 197° (SSW) 00:10:13 437.305
TISAT 1 20 Apr 00:08:52 00:12:43 38° 68° (ENE) 00:16:39 437.305
ESTCUBE 1 20 Apr 00:10:24 00:14:47 48° 261° (W) 00:19:11 437.505/2401.250
SPROUT 20 Apr 00:14:04 00:18:12 51° 71° (ENE) 00:22:24 437.525
ITUPSAT 1 20 Apr 00:22:19 00:24:40 14° 55° (NE) 00:27:11 437.325
NANOSAT C BR1 20 Apr 00:25:30 00:29:44 59° 100° (E) 00:33:59 145.865
POPSAT HIP 1 20 Apr 00:25:39 00:29:55 59° 101° (ESE) 00:34:10 437.405
Cosmos 2504 20 Apr 00:27:59 00:35:04 30° 59° (ENE) 00:41:52 435.465 / 435.565
TIGRISAT 20 Apr 00:41:11 00:45:51 56° 289° (WNW) 00:50:27 435.000
UNISAT 6 20 Apr 00:42:29 00:47:06 53° 290° (WNW) 00:51:42 437.425
POLYITAN 1 20 Apr 00:52:20 00:56:39 75° 286° (WNW) 01:00:57 437.675
BEESAT 20 Apr 00:55:34 00:59:25 25° 62° (ENE) 01:03:22 436.000
SWISSCUBE 20 Apr 00:56:48 01:00:47 27° 63° (ENE) 01:04:51 437.505
O/OREOS (USA 219) 20 Apr 01:01:07 01:05:42 69° 299° (WNW) 01:10:17 437.305
RS-15 20 Apr 01:01:15 01:12:43 81° 234° (SW) 01:24:41 29.354- 29.394
DUCHIFAT 1 20 Apr 01:01:36 01:05:50 62° 288° (WNW) 01:10:03 145.980
PHONESAT 2.4 20 Apr 01:08:36 01:10:24 13° 197° (SSW) 01:12:11 2401.200-2431.200
QB50P1 20 Apr 01:14:55 01:19:01 45° 290° (WNW) 01:23:07 145.935-145.965
Cosmos 2491 20 Apr 01:17:18 01:25:52 56° 289° (WNW) 01:34:28 435.465 / 435.565
ANTELSAT 20 Apr 01:24:50 01:28:42 25° 297° (WNW) 01:32:28 437.575/2403.000
BUGSAT 1 20 Apr 01:25:43 01:29:40 47° 290° (WNW) 01:33:39 437.445
AIST 1 20 Apr 01:26:22 01:29:50 24° 89° (E) 01:33:23
YUBILEINY 20 Apr 01:27:03 01:33:27 22° 283° (WNW) 01:39:27 435.215
QB50P2 20 Apr 01:38:56 01:42:38 28° 295° (WNW) 01:46:15 145.880/145.840
TISAT 1 20 Apr 01:45:11 01:48:40 24° 267° (W) 01:52:06 437.305
SPROUT 20 Apr 01:51:32 01:54:38 19° 270° (W) 01:57:40 437.525
GONETS M04 20 Apr 01:56:12 01:57:56 11° 36° (NE) 02:00:10
ITUPSAT 1 20 Apr 01:57:04 02:01:53 80° 73° (ENE) 02:06:43 437.325
Oscar 19 20 Apr 01:57:25 02:01:26 23° 90° (E) 02:05:33 437.125/150
NANOSAT C BR1 20 Apr 02:02:14 02:05:14 19° 299° (WNW) 02:08:09 145.865
POPSAT HIP 1 20 Apr 02:02:25 02:05:26 19° 299° (WNW) 02:08:21 437.405
STARS 20 Apr 02:10:13 02:13:04 18° 60° (ENE) 02:16:03 437.465
ITAMSAT 1 20 Apr 02:19:34 02:21:05 11° 83° (E) 02:22:53 435.822/435.867
Cosmos 2504 20 Apr 02:21:05 02:29:29 75° 264° (W) 02:37:11 435.465 / 435.565
POLYITAN 1 20 Apr 02:30:30 02:31:52 11° 304° (NW) 02:33:04 437.675
BEESAT 20 Apr 02:32:23 02:37:02 50° 260° (W) 02:41:43 436.000
SWISSCUBE 20 Apr 02:33:52 02:38:29 45° 262° (W) 02:43:05 437.505
KKS-1 20 Apr 02:34:51 02:38:59 40° 68° (ENE) 02:43:11 437.445
O/OREOS (USA 219) 20 Apr 02:43:33 02:46:04 14° 321° (NW) 02:48:27 437.305
AIST 1 20 Apr 03:03:19 03:07:22 37° 287° (WNW) 03:11:23
RS-15 20 Apr 03:14:45 03:23:43 26° 257° (WSW) 03:32:28 29.354- 29.394
Cosmos 2491 20 Apr 03:20:21 03:25:21 15° 316° (NW) 03:29:59 435.465 / 435.565
AO-7 20 Apr 03:29:40 03:31:20 11° 77° (ENE) 03:33:40 29.400- 29.500
Oscar 19 20 Apr 03:36:05 03:41:13 59° 290° (WNW) 03:46:20 437.125/150
ITUPSAT 1 20 Apr 03:37:40 03:40:28 15° 273° (W) 03:43:05 437.325
DANDE 20 Apr 03:39:38 03:43:13 16° 56° (NE) 03:47:32 436.750
CUSAT 1 20 Apr 03:41:24 03:46:03 20° 58° (ENE) 03:51:34 437.405
STARS 20 Apr 03:44:45 03:49:06 67° 258° (WSW) 03:53:30 437.465
Gurwin Techsat 1B 20 Apr 03:48:51 03:54:06 58° 100° (E) 03:59:20 435.225
GONETS M04 20 Apr 03:50:07 03:58:16 39° 65° (ENE) 04:06:29
MOZHAYETS 4 20 Apr 03:52:57 03:56:25 22° 62° (ENE) 03:59:59
JAS-2 20 Apr 03:53:10 03:56:31 15° 78° (ENE) 04:00:01 435.910
ITAMSAT 1 20 Apr 03:56:26 04:01:38 75° 104° (ESE) 04:06:49 435.822/435.867
KKS-1 20 Apr 04:12:04 04:15:48 25° 267° (W) 04:19:29 437.445
Cosmos 2504 20 Apr 04:16:24 04:21:26 17° 286° (WNW) 04:25:54 435.465 / 435.565
